This is the latest recevied weather packets stored in our database for station/object N8DMH-13. If no packets are shown the sender has not sent any weather packets the latest 1 day(s).
| Time | Temp. | Humidity | Pressure | Rain* | Wind** | Luminosity | Snow |
|---|---|---|---|---|---|---|---|
| 1778015080 | 12.22° C | 40% | 1007.3 hPa | 0 mm | 2.24 m/s, 248° | - | - |
| 1778014450 | 12.22° C | 40% | 1007.3 hPa | 0 mm | 1.79 m/s, 248° | - | - |
| 1778013819 | 12.22° C | 41% | 1007.2 hPa | 0 mm | 2.68 m/s, 248° | - | - |
| 1778013489 | 12.22° C | 40% | 1007.2 hPa | 0 mm | 2.68 m/s, 248° | - | - |
| 1778013189 | 11.67° C | 41% | 1007.3 hPa | 0 mm | 2.24 m/s, 248° | - | - |
| 1778012889 | 11.67° C | 40% | 1007.2 hPa | 0 mm | 3.13 m/s, 248° | - | - |
| 1778012589 | 11.67° C | 42% | 1007.3 hPa | 0 mm | 1.79 m/s, 248° | - | - |
| 1778012289 | 11.11° C | 40% | 1007 hPa | 0 mm | 2.68 m/s, 248° | - | - |
| 1778011989 | 11.11° C | 40% | 1007.1 hPa | 0 mm | 3.13 m/s, 248° | - | - |
| 1778011659 | 11.11° C | 41% | 1007 hPa | 0 mm | 2.68 m/s, 248° | - | - |
| 1778011359 | 11.67° C | 39% | 1006.9 hPa | 0 mm | 2.24 m/s, 248° | - | - |
| 1778011029 | 11.11° C | 41% | 1007.1 hPa | 0 mm | 2.68 m/s, 248° | - | - |
| 1778010698 | 11.11° C | 41% | 1006.9 hPa | 0 mm | 2.24 m/s, 248° | - | - |
| 1778010368 | 11.67° C | 40% | 1006.9 hPa | 0 mm | 3.13 m/s, 248° | - | - |
| 1778010068 | 11.67° C | 41% | 1006.9 hPa | 0 mm | 2.24 m/s, 248° | - | - |
| 1778009738 | 11.67° C | 41% | 1006.9 hPa | 0 mm | 2.68 m/s, 248° | - | - |
| 1778009438 | 11.67° C | 43% | 1006.8 hPa | 0 mm | 2.24 m/s, 248° | - | - |
| 1778009108 | 11.67° C | 42% | 1006.9 hPa | 0 mm | 1.34 m/s, 248° | - | - |
| 1778008778 | 11.11° C | 42% | 1006.8 hPa | 0 mm | 2.24 m/s, 248° | - | - |
| 1778008478 | 11.67° C | 41% | 1006.8 hPa | 0 mm | 1.79 m/s, 248° | - | - |
| 1778008148 | 11.67° C | 39% | 1006.8 hPa | 0 mm | 2.68 m/s, 248° | - | - |
| 1778007848 | 11.11° C | 41% | 1006.8 hPa | 0 mm | 2.68 m/s, 248° | - | - |
| 1778007547 | 11.67° C | 39% | 1006.8 hPa | 0 mm | 3.13 m/s, 248° | - | - |
| 1778007217 | 11.67° C | 39% | 1006.8 hPa | 0 mm | 2.68 m/s, 248° | - | - |
| 1778006917 | 11.67° C | 39% | 1006.8 hPa | 0 mm | 2.68 m/s, 248° | - | - |
* Rain latest hour (hover to see other rain measurements)
** Current wind speed in m/s (hover to see current wind gust speed)